Find Starlink 11431

NORAD ID: 62890 Int'l Des: 2025-024 Owner: SPXS Country: US Constellation: starlink operational
LEOCIRCULAR

Live Position

Loading 3D Globe...

About Starlink 11431

Description loading...

Upcoming Passes

Passes for default location (London). Set your location on the main map for personalized predictions.

Altitude History

Loading altitude history...

Two-Line Element Set

1 62890U 25024M 26126.56311764 .00200345 00000-0 15270-2 0 9999
2 62890 43.0007 193.0531 0001501 291.1375 68.9332 15.70847845 72568
Epoch: May 6, 2026 • Age: 18 hours

Current Status

Altitude 356.1 km
Velocity 7.70 km/s
Sub-Earth Point -2.10°S, 39.63°E
Launch Date Feb 4, 2025
Age 1.2 years
Type internet

Technical Details

Classification Payload
Mass 960.00 kg
Dry Mass 910.00 kg
Total Mass 960.00 kg
Length 0.30 m
Diameter 4.10 m
Span 29.00 m
Shape Box + pan
Manufacturer SPXS
Bus Type Starlink V2MD
Phase Status In Orbit
Owner/State SPXS/US

Most Searched